Find Starlink 32561

NORAD ID: 62026 Int'l Des: 2024-213 Owner: SPXS Country: US Constellation: starlink operational
LEOCIRCULAR

現在のビュー

3D地球を読み込み中...

About Starlink 32561

Starlink 32561 (NORAD 62026) is a starlink constellation satellite (v2 mini) launched Nov 18, 2024 by SPXS of US. It operates in LEO, CIRCULAR orbit with a mass of 730.00 kg.

Starlink 32561について

説明を読み込み中...

次回通過

Passes for default location (London). Set your location on the main map for personalized predictions.

高度履歴

Loading altitude history...

軌道要素

1 62026U 24213U 26174.88021702 .00019464 00000-0 66737-3 0 9992
2 62026 53.1598 34.8386 0001805 95.3842 264.7365 15.30209698 89414
Epoch: Jun 23, 2026 • Age: 6 hours

現在のステータス

高度 477.7 km
速度 7.63 km/s
衛星直下点 39.16°N, 104.31°E
打ち上げ日 Nov 18, 2024
運用期間 1.5 years
タイプ internet

技術仕様

分類 Payload
質量 730.00 kg
乾燥質量 700.00 kg
総質量 730.00 kg
長さ 0.30 m
直径 4.10 m
スパン 29.00 m
形状 Box + pan
製造者 SPXS
バスタイプ Starlink V2M
フェーズステータス In Orbit
所有者/国 SPXS/US

Most Searched